Volver al catálogo

STARLINK-6203

ActivoComunicacionesVLEO
NORAD 56899·PAYLOAD·🇺🇸 United States

Lanzado Jun 12, 2023 desde Cape Canaveral Space Force Station

Loading…

Próximos Pases (próximas 24 horas)

TLE

ActualizadoSource: CelesTrak SupGP

Época: Sep 15, 2026, 03:16 UTC

1 56899C 23083Z   26258.13659722 -.00006244  00000+0 -22630-3 0  2582
2 56899  43.0004  91.5542 0001110 267.4139 240.1461 15.27560616    19

Sigue STARLINK-6203 en tiempo real con AllMySat

Download on the App Store